Dewpoint
43 43 43 44 43 43 42 42 42 43 43 43 43 42 42 42 43 45 46 47 47 48 47 47 47 47 47 47 47 47 49 50 51 50 51 50 49 46 45 42 41 41 41 41 41 41 42 44 45 46 45 44 43 41 41 41 42 42 42 42 43 44 45 46 47 48 50 50 50 48 48 47 46 45 43 43 43 44 44 44 44 44 44 44 43 43 43 42 42 42 42 41 41 42 43 43 42 43 43 42 41 39 39
44 44 44 44 43 42 42 41 41 42 42 43 43 43 42 42 42 43 45 46 47 47 47 46 46 46 46 46 47 47 47 47 47 46 46 45 43 41 40 40 40 39 39 40 40 41 43 45 45 45 45 43 41 39 40 41 41 42 41 41 41 42 43 44 45 45 46 46 46 46 45 44 43 42 41 41 41 41 41 41 42 42 42 42 42 43 44 44 45 46 45 44 43 44 45 45 44 43 42 41 41 40 39
44 44 44 43 42 42 41 41 41 40 41 42 43 43 43 42 41 42 44 45 46 47 46 45 45 45 45 46 46 47 45 44 44 44 43 41 39 38 38 38 39 40 40 40 41 41 43 44 42 41 41 41 41 40 41 41 41 41 41 41 41 41 42 42 43 43 43 43 43 44 43 41 40 39 38 38 38 38 39 39 40 41 41 41 42 43 44 45 46 49 47 48 48 46 46 46 45 43 42 42 41 41 40
43 43 43 42 42 41 41 41 41 42 42 42 42 43 43 42 42 42 43 44 45 46 46 45 43 43 44 45 46 45 44 43 43 43 41 40 39 39 40 40 41 41 41 41 40 40 40 39 38 37 38 39 39 40 40 40 40 41 41 41 41 40 41 41 41 41 42 42 42 43 42 41 40 38 38 37 38 38 39 39 40 40 41 42 43 44 45 45 45 45 46 48 49 46 45 45 45 45 44 43 43 43 42
39 41 42 42 41 41 41 41 41 41 41 42 42 42 42 42 42 42 42 43 44 45 45 44 42 41 43 44 44 44 43 44 44 43 41 40 41 42 43 41 40 39 39 38 38 38 37 37 37 37 37 37 38 39 40 41 41 41 41 40 40 40 41 41 41 41 41 41 42 45 43 42 40 39 39 39 39 40 40 40 41 41 41 41 41 42 43 43 43 43 44 45 46 46 45 44 45 46 45 45 45 45 44
35 38 40 41 41 41 40 40 40 41 41 41 41 42 42 42 41 41 41 42 42 43 44 43 41 40 43 43 43 43 45 45 44 42 41 41 41 41 41 39 38 37 37 37 36 35 35 36 37 37 37 37 37 37 38 40 40 39 39 39 39 39 41 41 40 39 41 41 42 45 43 41 40 40 39 39 39 39 39 39 40 40 40 39 39 39 40 41 41 41 42 43 44 44 44 44 44 45 46 45 45 46 45
32 35 38 39 40 41 40 39 39 39 38 38 39 40 41 41 41 40 41 41 41 42 43 42 41 41 42 42 42 43 46 46 44 42 41 41 41 40 38 37 36 35 35 35 35 34 34 35 36 36 36 36 37 38 40 40 40 39 39 39 39 40 41 41 39 39 40 41 41 40 40 39 38 37 37 37 37 37 37 37 38 38 38 38 37 38 38 38 39 40 40 41 42 42 44 45 44 43 44 44 44 44 44
32 34 37 38 39 39 39 39 39 38 37 37 37 38 39 39 39 39 39 40 41 41 42 41 41 42 41 41 41 43 43 42 41 40 40 40 39 38 36 35 35 34 33 34 34 35 36 36 35 36 36 37 38 40 41 41 40 40 40 40 40 41 43 42 41 40 40 40 40 38 37 37 36 36 37 37 37 37 37 37 37 38 38 38 38 38 38 38 38 39 40 41 42 42 42 43 43 42 42 43 43 43 44
33 33 35 36 37 38 38 39 39 38 36 36 36 36 37 37 38 38 39 39 40 41 41 41 41 40 39 39 40 40 40 40 39 38 39 38 37 34 34 33 33 33 33 34 34 35 35 35 36 36 36 37 39 40 40 41 41 41 41 41 40 41 43 43 42 40 40 41 40 39 38 37 37 38 37 37 37 37 37 37 38 38 38 37 37 37 37 38 39 40 41 41 42 43 43 43 43 43 42 42 42 42 43
33 34 35 36 37 37 37 37 37 36 35 35 36 36 37 37 37 37 39 40 40 41 41 40 39 37 37 37 37 38 38 37 37 37 37 36 35 33 33 33 33 33 34 35 35 35 35 36 37 37 37 38 39 40 39 40 41 41 41 40 40 41 42 42 42 40 40 41 41 40 39 38 37 37 37 37 37 37 37 37 37 37 37 37 37 37 37 38 39 40 40 41 41 42 42 43 43 44 43 43 42 42 41
34 34 35 36 36 37 37 37 37 37 37 37 37 37 37 37 37 38 39 40 40 40 39 38 37 36 36 36 36 36 36 36 36 36 36 34 33 33 33 33 34 34 34 35 35 35 35 36 37 37 39 39 39 39 39 41 41 42 41 41 41 40 42 42 41 41 41 41 41 41 40 38 37 36 37 37 37 37 37 37 37 37 37 37 37 37 37 37 37 38 39 41 41 43 43 43 43 43 43 43 42 41 41
33 33 34 34 35 36 37 37 38 38 38 38 38 38 37 37 37 38 39 39 39 38 37 36 35 35 35 35 34 34 34 34 34 34 34 33 32 33 33 34 35 35 36 36 36 36 36 37 38 39 41 41 41 41 41 42 43 42 42 41 40 39 39 39 39 40 41 41 41 41 40 38 37 35 35 35 35 35 35 36 36 37 38 37 37 37 37 37 36 37 40 42 43 44 44 44 44 43 44 43 43 42 41
32 33 34 34 34 34 36 37 38 38 38 37 37 37 37 36 36 36 37 37 38 37 36 35 34 34 35 34 33 31 32 32 33 33 33 33 32 33 34 35 35 36 37 37 37 36 37 37 39 40 41 42 42 42 41 41 41 41 40 39 38 37 37 37 37 37 39 40 41 41 40 38 37 35 34 35 35 35 35 35 36 37 38 37 37 37 37 36 36 37 41 43 45 44 45 45 45 45 45 45 44 43 42
32 33 34 34 34 35 36 37 37 38 38 37 37 35 34 34 33 34 34 35 36 36 35 34 33 33 34 34 34 32 33 33 33 33 35 35 35 35 36 36 36 37 37 37 37 37 38 39 40 41 42 43 43 42 41 41 40 39 38 37 37 36 35 36 37 37 37 38 40 41 40 39 38 37 37 37 37 36 36 36 36 37 38 38 37 37 36 36 37 37 39 41 43 44 44 45 45 45 45 45 45 44 43
32 33 33 34 34 34 35 35 36 37 36 35 34 32 32 32 32 32 32 32 33 34 34 34 33 32 32 33 34 32 34 35 35 34 36 37 37 37 37 37 37 37 37 37 37 39 40 41 41 41 43 44 44 42 41 40 38 37 37 36 35 35 35 36 36 37 38 38 39 41 40 39 39 38 37 37 37 36 36 36 36 37 38 37 37 37 37 37 37 37 38 40 41 42 43 44 44 44 44 45 45 45 43
32 33 33 34 34 34 34 34 35 35 34 33 31 30 30 31 31 31 31 31 31 32 33 33 32 32 32 32 32 33 34 35 36 35 37 38 39 38 38 38 38 38 38 38 39 41 41 42 41 41 43 43 43 41 41 39 37 36 35 35 35 35 35 36 37 36 38 38 38 39 38 38 38 38 37 37 36 36 36 35 36 37 38 38 37 37 37 37 38 39 40 41 41 42 42 43 44 44 43 43 44 44 43
31 32 33 33 34 34 34 34 34 34 33 32 30 30 31 31 31 30 30 30 30 30 32 33 32 31 31 32 33 34 34 35 36 37 37 37 38 39 39 38 38 39 40 40 41 41 41 41 41 41 41 41 41 41 40 38 37 35 34 34 34 34 35 36 36 37 37 37 37 37 37 37 38 37 37 36 36 36 36 36 37 38 38 38 37 37 38 39 39 40 40 41 41 42 42 42 43 43 43 42 42 42 42
31 32 33 33 33 33 33 33 32 33 32 32 30 30 31 31 30 30 30 30 30 30 32 32 32 31 31 32 33 34 35 37 37 38 37 37 38 38 39 38 38 40 41 42 42 41 41 40 40 40 39 39 39 39 38 37 36 35 35 34 34 34 35 36 36 36 36 36 36 36 36 37 37 37 36 36 36 36 36 37 37 39 38 37 37 38 38 39 38 39 39 40 41 41 41 41 42 43 42 42 41 41 41
31 32 33 33 33 33 32 31 31 32 32 32 31 31 31 30 30 30 30 30 31 32 32 32 32 31 32 32 33 34 36 37 37 38 38 38 38 38 39 39 40 41 42 43 43 42 41 40 39 39 38 38 38 37 36 36 35 35 34 34 34 35 36 36 36 36 35 35 35 36 36 36 36 35 35 35 36 36 36 36 37 38 38 37 37 37 38 38 38 37 38 39 39 40 40 40 41 42 42 42 42 42 41
30 32 32 32 32 32 32 31 30 30 32 32 32 31 31 31 30 30 30 30 31 32 32 32 32 31 32 33 34 35 36 37 37 38 39 39 39 40 40 41 41 42 43 43 43 43 41 40 39 38 38 37 37 36 35 35 35 34 35 35 35 36 36 36 36 36 35 34 34 35 35 35 35 35 36 36 36 35 36 37 37 38 38 37 37 37 38 38 39 38 38 38 38 39 39 39 40 41 42 43 43 42 42
29 31 30 31 32 32 31 30 30 30 32 32 32 32 32 32 31 30 30 31 32 32 33 33 32 32 32 34 35 36 37 37 37 37 38 38 39 40 41 41 42 43 43 43 43 43 41 41 40 39 38 37 37 37 36 36 35 34 35 36 36 36 36 36 35 34 34 33 33 33 35 35 35 35 36 37 36 36 37 37 37 37 37 37 37 38 38 39 40 40 39 38 38 39 39 39 40 41 42 42 42 42 41
29 29 29 29 30 31 31 31 31 32 32 32 32 32 32 32 32 30 31 32 32 34 34 34 33 32 33 34 35 36 36 37 37 37 38 39 40 40 41 41 42 42 42 41 41 41 41 41 41 40 38 38 37 37 37 37 36 35 35 35 36 36 35 35 34 33 33 33 33 34 34 35 36 35 36 36 36 37 36 36 36 36 37 38 38 38 39 40 41 40 39 38 38 40 40 41 41 41 41 42 42 42 41
28 28 29 30 30 31 31 31 32 32 32 32 32 33 32 32 32 31 31 32 33 34 35 34 34 34 34 35 35 35 36 36 37 38 39 39 40 40 40 41 41 41 42 41 41 41 42 42 41 41 39 38 37 38 37 37 36 36 35 35 36 36 35 34 34 33 34 34 34 35 35 36 36 35 35 35 36 36 36 36 36 36 37 39 39 39 40 41 41 40 40 39 40 41 41 41 42 42 42 43 43 43 42
28 28 29 30 31 32 32 32 32 32 32 33 33 33 33 33 33 33 33 34 35 35 35 35 35 36 36 36 36 35 36 37 37 39 39 39 40 40 40 40 41 42 42 42 42 43 42 42 41 41 40 39 38 37 37 36 36 36 36 36 36 36 35 35 34 34 35 35 35 36 36 36 37 36 37 37 37 37 37 37 37 37 38 39 41 41 41 41 41 41 40 40 40 41 41 42 43 44 43 43 43 43 42
28 29 29 30 32 32 32 32 32 32 33 34 34 34 34 34 34 34 35 36 36 37 37 37 37 37 37 37 37 37 37 37 38 39 39 39 39 39 39 40 40 41 41 42 43 43 42 42 41 41 40 40 39 37 37 36 36 36 36 36 37 37 36 36 36 36 36 36 36 37 37 37 37 37 37 37 37 37 37 37 37 38 38 40 41 41 41 41 41 41 41 41 41 42 42 43 43 44 44 43 43 42 42
29 29 29 30 31 31 31 32 32 33 33 34 34 34 34 34 34 35 36 37 37 38 38 38 37 37 37 37 37 37 37 37 37 37 37 38 38 38 39 40 40 41 41 42 42 42 41 41 41 40 39 39 38 38 37 36 36 36 36 37 37 37 37 36 36 37 37 37 37 37 37 37 37 38 38 37 37 37 38 39 39 39 39 40 40 40 41 41 41 42 42 42 42 43 43 44 45 46 45 44 42 42 42
29 29 29 29 30 30 31 32 32 33 33 35 36 36 36 36 37 37 37 38 38 39 39 39 38 38 37 37 37 37 36 36 36 37 37 38 38 39 40 41 41 43 42 42 42 41 41 41 41 39 38 38 37 37 37 36 36 37 37 37 37 37 37 37 37 37 37 37 37 37 37 37 38 38 38 38 38 38 39 40 40 40 40 41 41 41 41 42 42 43 43 43 43 43 43 43 44 47 47 45 43 42 43
30 30 30 30 30 30 30 31 31 32 33 35 37 40 39 39 38 38 38 38 38 39 39 39 38 37 37 37 37 36 36 36 36 37 37 38 39 40 42 43 44 45 45 45 44 42 41 41 40 39 38 37 37 37 37 37 37 37 38 38 37 37 37 37 37 37 37 37 37 38 38 38 38 38 38 37 38 38 39 39 40 40 41 41 41 42 42 43 43 44 43 43 42 42 43 43 42 44 44 44 43 43 43
31 31 31 31 31 31 32 32 32 32 34 35 36 38 38 37 37 38 38 38 39 39 39 39 37 37 37 37 37 37 36 36 36 37 38 39 40 42 45 46 47 47 47 46 45 43 42 41 40 39 38 37 37 37 37 38 39 39 39 39 38 38 38 37 37 37 37 38 39 39 39 39 38 37 37 37 37 38 38 39 40 40 41 42 42 43 43 44 44 44 43 43 42 43 43 42 42 42 43 43 43 43 43
32 32 32 32 32 33 33 33 33 34 34 34 34 35 37 36 36 37 38 39 39 39 39 38 38 37 37 37 37 37 37 37 37 38 38 39 40 42 44 45 46 46 46 46 46 45 43 42 41 40 39 38 38 38 38 38 39 39 39 39 39 38 38 38 38 39 38 39 40 40 39 39 39 38 36 37 38 39 39 40 41 41 42 42 42 42 43 43 43 43 43 42 41 41 41 41 41 41 42 43 44 44 44
32 32 33 33 33 33 34 34 34 35 35 34 35 35 36 37 37 38 39 39 39 39 39 38 37 37 37 37 37 37 37 37 37 37 39 40 40 41 41 42 43 43 43 44 45 46 46 44 43 41 41 41 40 40 39 39 38 39 39 38 38 38 38 39 39 39 39 39 39 40 40 39 39 39 38 38 39 39 39 40 41 41 41 41 42 41 42 42 43 42 42 41 41 40 40 40 41 41 42 43 44 45 44
32 33 33 33 33 33 33 34 35 35 35 34 34 35 37 37 38 38 38 38 39 39 39 39 38 38 37 37 37 37 37 37 37 37 38 39 39 39 39 39 39 39 39 39 40 41 42 42 43 42 42 41 41 41 40 40 39 39 39 39 39 39 39 39 39 39 39 39 40 40 40 40 39 39 39 39 39 40 40 40 40 40 41 41 41 41 41 41 41 41 41 41 41 40 40 40 40 40 41 41 41 42 41
33 33 33 33 33 33 33 34 34 33 33 34 34 35 35 36 37 38 38 38 38 39 38 38 37 37 37 37 37 37 37 37 37 37 38 38 38 38 38 38 38 38 37 37 37 36 37 38 40 41 41 41 41 40 40 40 41 41 40 40 40 40 40 39 39 39 40 40 40 39 39 40 39 39 38 38 39 40 40 40 40 40 41 41 41 41 41 40 40 40 40 40 40 39 38 38 38 39 39 40 40 38 37
33 33 33 33 33 33 33 33 33 34 34 34 34 34 35 36 37 37 37 37 37 38 37 37 37 37 37 37 38 37 37 37 37 37 37 37 37 38 38 39 39 38 38 37 37 37 38 38 39 39 40 41 40 40 40 41 41 41 41 41 41 40 39 39 39 39 40 40 40 39 39 39 38 37 37 38 38 39 40 40 40 40 40 40 40 40 40 39 38 38 38 39 39 37 36 36 37 37 38 39 38 37 37
33 32 33 33 33 33 33 33 34 34 34 34 34 34 35 36 37 37 37 37 37 37 37 37 37 37 37 37 37 37 38 38 37 37 37 37 38 39 38 38 39 39 38 38 38 38 39 39 39 39 40 40 40 40 41 41 41 40 41 41 41 39 39 40 40 40 40 40 40 40 39 38 37 37 37 36 36 37 37 37 37 37 37 38 38 37 37 37 37 37 37 37 37 37 36 36 35 36 37 37 38 37 36
32 32 32 32 33 33 33 34 34 35 34 34 34 34 35 36 37 37 37 37 37 37 37 37 37 37 37 37 37 37 37 37 37 37 37 37 38 38 39 39 39 39 39 38 38 38 39 38 38 39 38 38 39 39 39 40 40 39 40 40 39 38 40 40 40 40 40 39 38 37 37 36 36 36 36 35 35 35 34 35 35 36 36 36 35 34 34 34 34 35 36 35 35 36 35 34 34 34 35 36 37 37 36
32 32 32 32 32 33 33 34 34 35 34 34 34 34 35 35 35 36 36 36 36 37 37 37 37 37 37 37 37 37 37 37 37 37 37 37 38 38 39 39 39 39 39 39 38 38 38 38 38 38 38 37 37 38 37 38 38 39 39 38 38 38 39 39 38 38 38 37 36 35 35 34 34 34 34 34 34 34 33 33 33 33 33 33 32 32 33 33 33 33 33 33 33 34 34 34 33 33 34 35 36 37 36
32 32 32 32 32 33 34 34 34 35 35 35 35 35 35 35 35 36 36 36 36 36 37 37 37 37 37 37 37 37 37 37 37 38 38 38 38 39 39 40 40 40 39 39 38 38 38 38 38 38 37 37 37 37 37 37 37 37 37 37 37 37 37 37 37 37 37 36 35 34 34 34 33 33 33 33 33 33 33 32 32 32 32 31 31 32 33 33 32 32 32 32 32 32 33 33 33 33 33 33 34 35 35
32 32 32 32 33 34 35 35 36 36 35 35 35 35 36 36 36 36 36 36 36 36 36 37 37 37 37 37 37 37 37 37 38 38 38 38 38 38 39 40 40 40 40 39 39 39 39 39 38 38 37 37 37 37 37 37 37 37 36 36 36 37 37 36 36 36 36 35 35 34 33 33 33 33 33 33 33 33 33 32 32 32 31 31 32 32 34 34 33 33 33 32 32 32 32 33 33 33 32 32 32 32 32
32 32 33 34 35 35 36 36 35 35 36 36 36 36 36 36 36 36 36 36 36 36 37 37 37 37 37 37 37 37 37 38 38 38 38 38 39 39 40 40 40 40 40 39 39 39 39 39 38 37 37 37 37 37 37 37 37 36 35 36 37 37 37 37 37 37 36 35 35 34 33 33 33 33 33 33 33 33 33 32 32 32 32 32 32 33 34 34 34 33 33 33 32 32 31 31 32 32 32 32 32 32 31
33 33 34 35 35 35 34 34 33 34 35 35 35 35 35 35 35 35 36 36 36 37 37 37 37 37 37 37 37 38 38 38 38 38 39 39 39 39 39 40 40 39 39 39 39 38 38 38 38 37 37 37 37 37 37 36 36 36 35 36 37 37 37 37 37 37 36 36 35 35 34 34 33 33 33 33 33 33 32 32 32 32 32 32 33 33 34 35 35 35 35 34 33 33 32 31 31 31 32 32 32 32 31
33 34 34 34 33 33 33 33 33 33 34 34 34 34 35 35 35 35 35 36 36 36 37 37 37 37 37 38 38 38 38 38 38 38 38 39 39 39 39 39 39 38 38 38 37 37 37 37 37 37 37 37 36 36 36 36 36 36 36 36 36 36 37 37 36 36 36 36 36 36 35 35 34 33 33 33 33 33 32 32 32 32 33 34 34 34 34 33 33 34 35 35 35 35 33 32 31 31 32 32 32 32 31
33 33 33 33 32 32 32 32 33 33 33 34 34 34 34 35 35 35 35 36 36 36 36 37 37 37 37 37 37 37 37 37 37 37 38 39 39 39 38 38 37 37 37 37 37 37 37 37 37 37 37 36 36 36 36 36 36 36 36 36 36 36 37 37 37 37 36 36 37 37 37 36 35 34 33 33 33 33 32 32 32 34 35 35 35 34 33 32 32 32 33 34 35 35 33 32 32 32 32 32 32 32 32
32 32 32 32 32 32 32 32 33 33 33 34 34 34 34 35 35 35 35 35 36 36 36 36 37 37 37 37 37 37 37 37 37 37 38 38 38 38 38 37 37 37 36 36 36 36 36 36 36 36 36 35 35 35 35 35 35 36 36 36 36 36 37 37 37 37 37 37 37 37 37 36 35 35 34 34 33 33 33 33 33 34 35 35 34 34 33 32 32 33 34 34 34 33 33 33 33 32 32 32 32 32 32
32 32 32 32 32 32 32 32 33 33 34 34 34 35 35 35 35 35 35 35 36 36 36 36 36 37 37 37 37 37 37 37 37 37 37 38 38 38 37 37 37 36 36 36 36 36 36 36 36 35 35 35 35 35 35 35 35 35 35 35 35 35 37 38 38 37 37 37 37 37 37 36 36 36 35 35 34 34 33 33 33 33 33 33 33 33 33 32 32 32 33 33 33 33 34 34 34 33 33 33 33 32 32
32 32 32 32 32 32 32 33 33 34 34 34 35 35 35 35 35 35 35 35 36 36 36 36 36 36 37 36 36 36 36 36 37 37 37 37 37 37 37 37 37 36 36 36 36 36 36 36 36 36 36 35 35 35 35 35 34 35 35 35 35 36 38 39 38 38 38 37 37 37 37 37 37 37 37 36 35 34 34 33 33 33 33 33 33 33 34 34 34 34 34 34 34 35 35 35 34 34 33 33 33 32 32
32 32 32 32 32 32 33 33 34 34 34 34 35 35 35 35 35 35 35 35 35 35 35 36 36 37 37 36 36 35 35 36 36 37 37 37 37 37 37 37 37 36 36 36 36 36 36 36 36 36 36 35 35 35 35 34 35 35 35 36 37 39 39 39 39 39 39 39 38 38 38 38 38 38 37 37 36 35 34 34 34 34 34 35 35 35 35 35 35 36 36 35 35 36 35 35 34 34 33 33 32 32 32
32 32 32 32 33 33 33 34 34 34 34 34 34 35 35 35 35 35 35 35 35 34 34 35 36 37 36 36 35 35 36 36 37 37 37 37 37 37 37 37 37 37 36 36 36 36 37 37 36 36 36 35 35 35 34 35 35 35 36 37 38 39 38 39 40 40 40 40 39 38 38 38 38 38 37 37 36 36 35 35 36 37 36 36 37 37 37 36 36 36 36 35 35 35 35 35 34 35 34 33 33 32 32
33 33 33 33 33 33 34 34 34 34 34 34 35 34 34 34 35 35 34 34 34 34 33 35 36 36 36 35 36 36 36 36 36 36 37 37 37 37 37 37 37 37 37 37 37 37 37 37 37 37 37 36 36 35 35 35 35 35 36 37 38 39 39 39 39 40 40 40 39 37 37 37 37 37 36 36 36 36 36 36 37 37 37 37 37 38 37 37 37 36 36 35 35 34 34 34 34 34 33 32 32 31 31
33 34 34 34 34 34 34 34 34 34 36 36 36 35 34 34 34 33 33 33 33 33 33 34 34 35 35 35 36 36 35 35 35 35 36 36 36 36 37 37 37 37 37 37 37 37 37 38 37 37 37 37 36 35 35 34 34 35 37 37 38 39 39 39 39 39 38 38 38 38 37 37 37 36 36 36 36 36 36 37 37 37 37 38 38 38 36 35 35 35 35 34 33 32 31 31 31 31 30 30 29 29 29
34 34 34 34 35 35 35 34 34 35 36 37 37 37 35 34 33 33 33 33 33 33 33 34 34 34 34 34 34 34 34 33 34 34 34 35 35 36 36 37 37 37 37 37 37 37 37 37 37 37 37 36 36 35 34 34 34 35 36 37 37 37 38 38 38 38 38 38 38 37 37 37 36 37 37 36 36 36 36 36 37 37 36 37 38 37 35 35 34 35 34 33 32 30 30 29 29 28 28 28 28 28 28
34 34 34 34 34 35 35 35 35 34 35 35 35 36 35 33 33 32 33 33 33 33 33 33 33 33 33 33 33 33 33 32 33 34 34 34 34 35 35 36 36 36 37 37 37 37 37 37 37 36 36 35 35 35 34 34 34 34 35 36 36 37 37 37 37 37 37 38 38 38 37 37 36 37 37 36 35 35 34 34 34 34 34 35 36 37 36 35 34 34 34 33 32 31 30 29 28 27 28 28 28 28 28
34 33 33 33 34 34 35 35 34 32 33 34 34 35 34 33 32 33 33 33 33 32 33 33 32 32 32 33 33 32 32 32 33 33 33 34 34 34 34 34 34 35 36 37 37 37 37 37 37 37 36 35 34 34 34 34 34 34 34 35 35 36 37 37 38 38 39 39 39 38 37 36 35 34 34 34 33 32 32 31 31 31 31 32 33 35 36 35 35 34 34 33 32 31 30 29 28 27 27 27 26 26 26
33 32 32 33 33 34 33 32 32 32 33 34 34 33 33 33 33 33 33 32 32 32 32 32 32 31 32 32 32 31 33 35 36 35 34 33 32 32 32 32 33 34 35 37 37 37 37 37 37 37 36 35 35 34 34 34 34 34 35 35 35 36 36 37 39 40 39 38 37 37 35 34 33 33 32 31 30 29 29 29 29 29 29 30 32 35 36 36 35 33 32 31 30 30 29 28 27 26 25 25 24 23 23
32 32 32 32 32 32 31 31 31 32 32 32 32 32 33 33 33 33 32 32 32 32 32 31 31 31 31 30 30 29 32 33 34 34 34 32 32 32 32 32 32 33 35 36 37 37 37 37 37 36 36 36 35 34 34 35 35 36 36 36 36 36 37 37 37 37 36 35 34 34 33 32 31 30 29 28 28 28 28 28 28 28 28 29 32 36 35 33 31 29 28 29 29 30 30 28 27 25 24 23 22 22 22
32 32 32 31 31 31 31 31 32 32 32 32 32 32 33 33 33 32 32 32 32 32 31 30 30 29 29 28 28 28 30 31 32 32 32 31 32 32 33 32 33 34 35 36 36 36 37 37 37 36 37 37 36 36 36 36 36 36 36 36 37 37 36 35 34 33 33 33 33 32 32 31 30 28 28 28 28 28 28 27 27 26 26 27 29 33 31 29 28 27 28 28 29 30 28 27 25 24 23 23 22 21 21
32 32 32 32 31 32 32 32 32 32 32 32 32 32 32 32 32 31 31 31 30 30 29 28 28 28 28 28 28 28 28 28 29 30 30 31 32 32 32 33 33 34 35 35 35 35 36 37 37 37 37 37 37 37 36 36 36 36 37 37 36 34 33 32 32 32 32 32 32 31 31 30 29 28 28 28 28 27 26 25 24 24 24 25 28 30 28 28 27 27 27 27 27 29 27 26 26 24 23 22 21 21 21
32 32 32 32 32 32 32 32 32 32 31 31 31 31 31 30 30 29 29 29 28 28 28 27 27 27 27 27 28 28 28 28 29 30 30 31 32 32 32 33 34 35 35 35 34 34 35 36 37 37 37 37 37 37 36 36 36 36 36 34 32 32 32 32 32 31 31 30 30 29 28 28 28 28 28 27 26 25 24 23 23 23 23 24 27 28 28 27 26 25 25 25 26 27 26 25 23 23 23 22 21 21 22
32 32 32 32 32 32 31 31 31 30 30 30 29 29 28 28 28 28 28 27 27 27 27 27 27 27 27 27 28 28 28 29 29 30 30 31 31 32 34 34 35 37 36 35 34 34 35 36 36 37 37 37 37 36 36 35 34 33 32 32 31 30 30 30 30 30 30 30 29 29 29 29 28 28 28 27 26 24 23 23 22 22 23 26 27 27 26 26 25 24 24 24 25 25 25 23 21 20 21 21 20 20 21